Wind_Speed
12 12 12 13 13 14 15 15 16 17 17 17 17 16 16 15 16 16 18 16 17 19 16 15 15 18 21 23 22 17 13 14 14 20 21 21 24 11 12 18 34 21 14 17 22 26 24 22 22 12 11 31 29 26
14 14 14 15 16 16 17 18 19 19 19 20 20 20 20 19 18 19 20 23 21 23 21 21 24 20 21 22 21 23 20 20 11 9 18 19 25 8 9 15 17 24 25 32 31 25 23 26 29 21 11 19 17 30
17 17 18 18 18 19 20 21 21 21 21 21 22 22 22 22 22 22 23 25 27 30 28 14 25 16 14 16 21 32 27 22 19 16 18 19 19 19 13 16 19 12 12 22 31 30 30 43 41 38 25 7 10 20
19 19 20 20 21 21 22 23 23 23 23 23 23 24 25 25 26 26 26 28 28 28 33 14 3 14 13 17 16 22 24 23 26 21 18 21 23 21 24 19 22 30 24 26 26 32 35 31 31 31 26 15 16 17
17 18 19 19 19 21 22 23 24 23 24 24 25 27 28 29 29 29 28 26 23 21 26 28 23 18 20 21 24 17 20 22 21 25 19 20 20 18 25 25 28 26 16 21 16 22 25 12 27 63 51 11 12 14
18 18 19 19 19 21 22 23 23 23 25 26 27 29 30 29 27 25 25 15 14 19 25 30 16 19 19 15 17 26 23 22 24 21 22 21 22 23 23 22 20 16 8 13 9 8 4 1 10 12 8 7 5 4
18 19 19 20 20 21 22 22 22 24 26 28 30 29 25 21 19 17 16 20 19 19 21 19 14 7 10 11 17 16 16 18 19 19 21 20 20 19 24 29 21 15 15 11 3 2 7 3 4 8 6 7 8 6
17 18 19 19 19 20 20 20 22 25 26 27 23 19 17 15 13 12 13 14 14 14 14 8 12 9 13 9 15 16 15 17 19 20 18 18 17 19 25 23 18 19 16 20 13 4 7 12 13 7 5 3 4 4
17 18 18 18 19 19 18 19 22 24 24 20 17 15 13 11 12 12 10 10 11 11 8 13 15 19 19 23 16 11 17 17 16 19 20 18 18 19 18 19 20 22 14 11 12 5 6 5 4 9 8 7 6 5
18 18 19 18 18 18 18 19 20 20 17 15 13 14 11 13 10 9 7 10 9 11 12 23 14 22 14 20 27 15 7 15 14 18 14 21 22 18 19 18 20 15 14 13 10 9 8 12 6 6 10 12 11 9
20 19 19 18 18 17 17 18 17 14 15 13 11 9 12 12 8 5 6 8 7 9 12 24 24 24 9 13 18 10 11 6 8 12 11 22 21 17 17 20 22 26 23 17 16 17 18 15 12 13 14 14 21 22
19 18 18 18 16 16 16 17 15 14 14 12 12 11 11 5 7 5 8 8 5 5 21 23 19 19 15 13 10 5 8 4 6 7 11 6 16 24 20 14 14 30 21 20 19 17 17 20 23 23 21 29 28 18
17 17 18 16 15 15 15 15 13 11 11 11 10 6 5 2 4 4 4 7 12 21 25 21 21 20 13 10 9 6 4 4 3 4 5 16 19 27 31 42 13 9 15 17 17 14 12 15 21 23 24 19 28 21
18 16 16 15 15 14 15 12 12 11 9 9 6 5 3 4 4 7 17 20 19 21 22 22 21 16 17 14 6 5 6 7 4 9 8 7 7 9 8 7 13 13 13 14 14 15 14 12 18 19 19 16 30 21
19 14 14 14 14 13 13 11 11 10 8 5 4 5 5 8 12 11 16 15 17 23 19 23 21 14 12 9 6 3 5 6 5 5 7 10 10 7 9 11 13 15 16 16 17 19 16 14 10 12 15 23 28 32
13 12 13 14 14 13 11 10 10 10 9 8 8 6 9 11 13 13 18 18 22 22 20 16 14 7 7 6 6 7 5 5 6 5 4 6 5 11 11 10 11 13 15 16 17 19 18 15 16 15 25 30 31 22
12 11 11 12 14 12 11 11 12 12 7 6 5 6 8 9 12 16 21 20 26 21 14 14 6 5 6 8 6 6 6 6 7 7 5 10 14 15 14 14 15 17 17 17 17 17 16 17 20 24 29 36 39 24
14 11 11 12 13 11 10 12 11 9 11 8 4 8 5 10 18 20 20 22 20 14 17 17 18 16 10 8 10 9 14 14 14 16 17 17 20 23 22 21 20 18 16 18 18 17 16 17 20 28 26 31 25 23
18 12 10 11 11 10 10 10 9 9 7 7 14 7 12 16 17 12 22 15 19 14 16 14 7 10 15 17 22 24 22 22 22 19 21 22 25 26 24 19 20 18 19 17 17 15 13 18 21 26 31 36 35 27
9 10 10 10 10 10 9 6 10 11 6 4 7 10 16 14 13 16 17 17 21 16 14 11 15 20 24 23 23 26 23 19 19 19 18 18 18 17 16 17 20 21 20 17 16 15 14 17 19 21 24 21 24 22
9 9 10 10 11 12 12 8 8 7 6 9 8 10 11 12 11 12 12 15 21 20 18 14 15 13 13 16 15 17 17 17 17 17 19 19 17 19 19 18 17 16 16 15 17 15 15 15 17 21 21 17 18 22
9 9 10 10 11 14 16 15 11 13 11 9 11 12 11 8 8 10 4 11 11 16 19 10 16 17 11 9 14 11 5 5 8 10 9 10 9 11 11 11 11 14 16 16 17 16 13 7 12 16 15 19 19 12
8 8 9 10 11 9 7 9 9 6 8 6 5 8 12 14 9 5 9 5 7 11 13 14 20 18 22 26 23 19 16 12 13 5 1 2 3 6 5 9 15 13 11 13 17 17 13 12 16 16 5 17 19 26
10 9 8 5 7 7 4 5 5 6 8 6 12 11 9 11 6 15 8 4 3 5 13 16 18 22 23 22 20 20 25 32 29 27 33 11 10 12 6 3 3 5 9 2 9 9 14 14 22 19 17 18 23 20
8 7 7 10 8 7 6 8 9 11 11 9 10 12 8 11 10 8 9 5 3 4 7 14 15 11 17 18 25 33 35 31 30 33 34 34 32 33 38 46 37 19 37 37 29 24 18 15 15 21 24 16 21 18
7 7 7 4 4 5 6 5 6 9 9 8 7 8 7 12 9 4 6 5 4 3 2 7 12 10 9 12 15 20 18 18 23 25 26 26 26 24 26 28 29 29 34 36 32 30 26 26 24 23 23 21 15 11
11 10 8 10 8 9 11 8 6 6 6 6 8 7 9 5 3 1 2 11 12 6 3 5 9 4 5 6 10 10 9 10 14 20 21 17 19 19 18 17 18 18 15 14 13 15 16 14 13 14 14 17 16 14
17 14 9 10 11 9 9 7 13 10 7 6 5 5 5 4 4 2 7 8 2 5 6 3 3 2 3 8 10 9 13 11 12 13 9 12 20 22 24 22 18 13 12 10 7 8 12 11 7 6 5 8 12 13
20 13 10 12 12 14 12 15 10 6 7 7 6 7 8 10 10 7 12 11 7 8 14 7 4 5 4 6 13 19 10 15 13 11 11 11 10 10 11 12 12 16 16 11 8 6 5 6 8 6 4 4 4 14
9 9 9 10 13 12 10 11 8 11 1 3 5 9 13 16 14 10 4 10 10 4 3 6 4 9 5 3 8 12 15 12 13 10 8 8 8 7 9 11 12 12 11 10 12 10 10 6 6 6 7 7 5 3
4 7 9 10 11 10 11 13 9 6 6 8 8 11 11 6 8 10 13 14 11 17 11 5 5 7 6 5 4 9 8 5 9 10 7 5 6 7 8 9 10 11 11 10 9 8 9 9 7 5 4 2 2 3
9 10 11 11 13 11 11 17 13 7 7 10 10 5 5 5 6 10 14 14 13 12 13 9 8 8 7 5 3 8 8 4 7 9 6 4 5 6 6 6 8 9 9 9 8 8 8 9 9 9 9 7 8 8
8 9 11 12 12 14 16 11 17 11 7 10 13 10 7 5 6 6 8 13 14 13 12 17 13 12 12 9 8 7 10 6 2 5 9 6 4 7 7 5 4 5 5 6 7 8 9 10 10 11 12 12 11 9
Wind_Direction
315 317 320 321 321 322 321 323 324 324 326 326 325 324 324 323 320 319 316 314 309 304 306 283 285 277 263 257 262 262 286 260 255 246 252 263 271 265 265 284 273 264 234 256 279 263 250 220 243 262 263 240 225 206
311 312 314 315 315 315 315 316 316 317 319 318 318 318 318 316 313 311 310 307 305 298 294 294 295 286 271 257 252 234 245 236 244 292 254 269 283 245 252 266 254 268 278 278 229 234 254 264 269 280 201 236 196 196
302 305 307 308 310 313 314 313 313 314 316 316 316 315 313 313 311 309 308 303 302 302 301 296 295 296 290 261 249 245 242 241 250 256 270 273 277 282 268 272 282 260 275 261 279 256 289 266 232 258 214 111 141 144
296 298 301 305 307 309 310 310 310 311 311 311 311 311 311 311 310 309 306 303 301 300 298 284 268 264 277 283 262 249 255 248 232 244 254 255 266 271 279 288 289 292 282 287 296 272 293 286 266 222 259 87 123 165
302 303 304 306 308 310 310 309 308 308 307 309 311 311 310 309 309 308 306 302 298 291 283 282 271 280 278 264 263 254 260 255 248 244 245 249 255 261 269 273 282 268 251 251 275 289 304 276 249 215 261 177 150 178
297 302 305 308 311 313 313 311 310 309 311 312 311 308 308 308 308 307 306 308 305 299 298 301 281 274 261 256 244 237 244 250 251 243 242 246 247 248 270 263 271 270 310 288 313 31 230 238 86 108 186 149 120 157
299 300 301 306 309 313 314 312 311 313 315 315 313 312 313 314 312 309 299 301 305 303 303 311 319 337 300 247 241 250 251 252 241 244 244 249 249 244 252 257 262 275 304 312 15 80 237 163 255 165 190 183 163 222
302 304 306 307 308 311 312 313 314 316 320 321 323 325 325 321 322 323 318 311 307 307 302 294 299 293 257 233 247 242 240 245 244 243 245 249 258 251 248 246 250 265 281 293 263 97 237 222 174 166 152 208 215 258
301 307 311 310 310 311 313 315 317 320 325 325 326 330 328 333 331 338 330 325 324 311 294 296 295 298 296 254 251 235 214 228 247 239 245 240 242 244 258 272 273 256 271 261 257 215 203 237 188 209 215 213 207 192
295 305 309 310 311 311 315 316 321 326 337 339 337 327 343 346 338 344 350 340 341 334 333 337 294 280 291 297 295 289 272 226 241 242 238 239 247 243 268 252 254 237 250 238 225 241 228 251 228 205 220 232 231 210
289 298 306 309 309 311 313 317 318 321 331 335 334 299 322 325 326 344 353 349 334 329 337 344 339 306 315 282 306 314 311 227 236 224 245 236 244 246 250 238 238 247 259 270 265 264 244 231 236 239 235 230 229 218
287 288 301 306 306 310 312 316 314 319 325 323 316 311 322 336 8 335 314 319 301 284 320 333 339 345 313 299 293 310 282 252 236 230 228 243 228 237 232 218 245 254 263 270 266 264 258 247 243 243 252 257 247 227
281 285 295 303 304 309 310 309 309 309 321 325 314 317 344 37 271 268 305 283 300 310 315 311 319 318 321 305 267 264 261 271 251 228 224 250 244 255 266 254 340 280 267 269 265 270 268 273 255 250 244 241 260 239
271 286 294 299 301 304 307 296 307 301 312 317 328 309 276 284 262 278 302 309 312 314 326 318 300 290 294 295 263 276 271 272 254 243 262 255 243 228 234 251 252 254 257 261 263 262 272 285 277 246 242 240 267 258
271 281 294 299 300 303 300 288 301 296 293 296 278 266 274 301 299 300 313 289 314 322 319 319 316 289 279 266 250 272 250 226 238 264 245 233 229 272 279 254 260 270 272 270 271 268 265 265 241 249 216 229 243 255
268 271 283 289 295 302 287 280 295 286 286 272 244 228 295 294 317 302 309 305 306 310 306 307 291 274 259 243 237 238 267 298 312 292 257 271 231 239 252 255 266 275 278 278 274 274 263 251 228 212 221 230 237 208
276 278 284 289 293 295 277 278 286 275 256 230 276 287 286 286 303 309 308 310 311 313 310 313 281 262 276 262 261 255 276 304 312 283 340 293 280 264 260 266 277 280 280 281 276 270 255 246 234 217 227 227 230 223
273 278 282 286 289 287 271 281 279 252 255 275 290 283 280 307 290 303 302 313 322 315 299 297 291 275 266 259 263 271 276 273 265 267 270 272 271 275 275 270 270 272 274 277 285 277 254 240 233 227 232 233 239 253
270 268 273 276 285 273 280 285 258 255 260 277 285 293 292 302 292 318 318 328 351 328 318 308 287 277 271 278 266 266 270 280 287 284 277 274 273 273 277 271 261 263 268 274 282 275 267 241 238 232 227 222 222 230
259 270 273 276 274 256 263 261 279 263 271 250 274 278 280 282 291 312 309 335 341 353 346 329 314 305 304 291 272 270 273 279 288 289 287 285 283 278 283 274 262 260 265 270 269 265 262 250 245 244 236 205 190 217
257 271 271 273 261 249 250 254 268 297 290 269 275 267 281 288 302 290 280 334 336 353 351 340 356 353 316 321 317 270 263 273 280 276 283 282 274 268 273 284 279 271 265 257 255 258 265 265 241 232 265 161 142 170
246 262 271 272 260 256 258 250 243 245 263 275 267 283 292 282 287 267 274 317 344 14 16 34 16 18 20 15 7 11 345 269 273 282 296 302 280 277 285 279 281 261 254 253 249 250 259 277 224 218 240 276 241 149
246 267 273 273 260 258 269 243 240 240 257 279 298 262 277 295 266 247 255 273 330 2 5 38 46 57 65 61 59 54 58 76 99 105 17 346 321 313 302 293 296 284 268 251 238 246 250 227 222 213 190 151 160 139
252 258 269 244 246 242 257 237 234 226 278 273 288 283 273 296 275 242 253 242 334 358 36 61 59 51 48 54 57 58 73 67 73 69 62 96 82 63 58 69 242 288 299 246 188 205 186 180 148 146 159 148 138 164
252 251 236 237 241 255 230 257 255 229 250 272 279 296 280 296 267 265 225 206 204 111 76 76 62 55 55 56 56 58 56 59 57 59 60 52 55 59 54 48 54 105 96 110 120 117 131 138 118 133 116 123 140 147
243 233 226 230 231 228 224 258 250 242 261 262 269 286 276 287 274 237 199 139 121 132 273 341 57 76 37 47 51 47 49 66 64 64 60 54 55 62 66 61 60 55 51 59 68 69 69 61 80 101 82 68 57 55
244 240 250 200 195 225 225 258 257 254 258 256 283 282 295 282 293 275 82 156 209 127 281 7 37 72 86 39 76 83 73 66 54 51 46 49 46 42 37 41 57 67 83 100 95 101 108 107 109 106 127 151 135 122
248 242 232 238 239 232 256 257 254 245 246 232 252 269 273 290 350 343 182 212 235 156 135 139 157 37 335 249 299 155 113 132 98 79 76 57 31 29 33 42 45 45 40 45 70 105 113 115 106 114 153 172 176 170
249 254 243 226 231 219 224 239 236 246 236 237 235 277 294 289 273 231 202 209 180 186 159 149 140 140 253 334 19 39 118 120 104 95 77 67 61 53 48 49 47 28 34 56 68 82 98 108 122 121 100 61 91 188
224 210 225 229 231 240 232 206 220 263 230 271 296 273 273 273 277 236 195 163 166 220 99 180 50 92 260 325 49 45 65 76 90 81 76 80 64 57 45 41 40 54 63 50 57 69 79 97 130 118 115 108 95 112
199 223 223 224 230 231 223 243 219 209 237 262 271 281 286 223 216 200 166 163 190 208 151 160 203 143 140 94 100 66 104 113 128 128 114 100 89 67 59 39 30 52 63 80 75 67 52 51 59 67 67 61 200 268
216 222 221 227 225 233 219 248 193 230 228 225 234 276 233 175 186 199 183 190 189 180 195 178 174 177 105 150 177 168 149 164 146 162 142 145 98 87 74 35 23 25 36 54 70 67 55 59 52 43 38 38 23 18
230 226 222 219 222 226 216 234 248 225 250 241 206 218 257 238 244 245 204 191 208 184 188 194 177 179 165 138 160 180 203 212 243 204 211 228 219 169 128 104 24 40 35 23 19 24 33 34 27 23 20 21 16 15
Height
3142 3140 3138 3137 3135 3133 3130 3128 3126 3123 3121 3119 3116 3114 3112 3109 3107 3104 3101 3099 3097 3094 3092 3090 3089 3087 3086 3086 3085 3086 3088 3087 3086 3086 3087 3086 3083 3077 3081 3081 3081 3079 3074 3076 3078 3077 3072 3069 3077 3068 3064 3068 3071 3072
3139 3138 3136 3134 3132 3129 3127 3125 3122 3120 3118 3115 3112 3110 3107 3105 3103 3100 3097 3094 3091 3088 3088 3084 3081 3079 3078 3078 3078 3078 3081 3081 3083 3082 3084 3083 3083 3075 3077 3077 3076 3075 3071 3075 3068 3074 3065 3067 3061 3060 3064 3068 3050 3062
3136 3135 3133 3131 3128 3126 3123 3121 3118 3116 3113 3110 3107 3105 3102 3099 3097 3095 3092 3088 3085 3080 3077 3076 3074 3073 3070 3069 3070 3069 3071 3074 3076 3080 3079 3077 3077 3072 3076 3071 3072 3076 3073 3072 3070 3059 3055 3053 3061 3055 3053 3045 3046 3059
3132 3130 3129 3127 3124 3122 3119 3116 3114 3111 3108 3105 3102 3099 3096 3093 3090 3088 3085 3081 3078 3074 3069 3069 3072 3066 3066 3064 3063 3062 3064 3065 3067 3071 3073 3073 3072 3071 3069 3067 3067 3064 3066 3065 3059 3055 3048 3047 3051 3041 3024 3038 3055 3058
3128 3126 3124 3122 3120 3117 3114 3111 3108 3105 3102 3100 3096 3092 3089 3086 3083 3079 3076 3073 3071 3071 3064 3060 3061 3062 3059 3059 3057 3057 3059 3058 3059 3062 3066 3068 3068 3069 3066 3064 3061 3056 3059 3058 3053 3049 3044 3046 3036 3027 3015 3047 3057 3056
3123 3122 3120 3118 3116 3113 3109 3106 3102 3099 3097 3094 3090 3086 3082 3079 3075 3072 3069 3069 3065 3063 3059 3053 3053 3051 3052 3054 3053 3052 3051 3052 3051 3053 3058 3061 3062 3064 3062 3060 3058 3049 3054 3053 3046 3043 3051 3050 3046 3051 3055 3054 3056 3059
3118 3117 3115 3113 3111 3108 3105 3102 3098 3095 3091 3088 3083 3079 3075 3072 3069 3068 3067 3063 3061 3059 3055 3049 3048 3047 3048 3048 3048 3047 3047 3045 3046 3047 3050 3054 3055 3057 3055 3052 3054 3057 3048 3051 3049 3040 3053 3051 3051 3053 3054 3055 3059 3061
3114 3112 3110 3109 3106 3104 3101 3098 3094 3090 3086 3082 3078 3074 3071 3068 3066 3064 3062 3060 3058 3056 3054 3050 3047 3047 3043 3044 3044 3044 3042 3042 3041 3040 3044 3046 3048 3048 3045 3047 3051 3051 3052 3052 3045 3051 3058 3059 3056 3056 3058 3057 3057 3058
3110 3108 3106 3104 3102 3099 3097 3094 3090 3086 3082 3077 3074 3072 3069 3066 3064 3062 3060 3058 3056 3057 3052 3049 3048 3045 3040 3037 3033 3025 3036 3035 3037 3036 3037 3041 3041 3040 3040 3040 3041 3046 3049 3051 3053 3052 3053 3055 3052 3051 3052 3057 3057 3054
3105 3104 3102 3100 3097 3095 3093 3090 3087 3083 3079 3075 3073 3071 3067 3065 3063 3061 3059 3057 3054 3054 3050 3047 3042 3039 3042 3033 3033 3033 3025 3030 3030 3032 3034 3032 3032 3036 3038 3038 3034 3036 3039 3042 3043 3044 3045 3047 3047 3048 3051 3052 3052 3051
3100 3099 3097 3095 3093 3091 3089 3086 3083 3080 3078 3075 3072 3070 3068 3064 3063 3060 3058 3057 3055 3053 3049 3046 3041 3034 3036 3036 3032 3030 3026 3025 3028 3029 3028 3026 3028 3032 3033 3032 3031 3030 3032 3035 3036 3036 3038 3039 3040 3042 3044 3046 3045 3042
3095 3094 3093 3091 3089 3087 3085 3082 3080 3077 3075 3073 3071 3068 3065 3064 3063 3063 3061 3058 3056 3054 3049 3046 3042 3037 3033 3032 3031 3031 3025 3027 3025 3025 3025 3023 3022 3019 3024 3023 3027 3028 3030 3029 3031 3033 3034 3035 3035 3036 3037 3032 3029 3017
3090 3089 3088 3086 3085 3083 3081 3079 3077 3075 3073 3071 3070 3067 3066 3066 3065 3064 3061 3060 3057 3052 3049 3043 3042 3038 3034 3031 3030 3029 3028 3024 3023 3022 3021 3021 3021 3020 3021 3008 3007 3023 3026 3025 3024 3025 3026 3028 3027 3029 3032 3035 3034 3013
3084 3084 3083 3081 3080 3078 3077 3075 3074 3072 3071 3070 3069 3068 3066 3065 3064 3062 3060 3057 3053 3050 3046 3042 3039 3037 3034 3032 3030 3029 3027 3025 3021 3020 3018 3018 3017 3018 3018 3021 3023 3023 3023 3022 3022 3022 3023 3023 3022 3022 3026 3028 3025 3029
3079 3079 3079 3077 3075 3074 3073 3072 3071 3069 3069 3069 3070 3066 3064 3064 3061 3059 3058 3052 3050 3048 3043 3039 3036 3034 3032 3030 3028 3026 3024 3021 3018 3016 3015 3016 3017 3018 3020 3020 3019 3019 3018 3019 3020 3019 3021 3021 3020 3020 3023 3024 3021 3022
3073 3074 3074 3072 3071 3070 3069 3068 3067 3067 3066 3066 3064 3064 3063 3061 3059 3057 3055 3051 3049 3045 3041 3037 3033 3030 3028 3026 3024 3022 3020 3018 3017 3015 3015 3016 3015 3016 3017 3017 3017 3017 3016 3015 3015 3015 3015 3016 3016 3018 3019 3018 3017 3018
3068 3069 3069 3068 3067 3066 3065 3065 3064 3063 3062 3061 3062 3061 3061 3059 3056 3054 3050 3046 3044 3039 3036 3033 3031 3028 3025 3022 3020 3018 3017 3017 3014 3013 3009 3011 3012 3013 3013 3013 3013 3013 3011 3011 3010 3009 3010 3011 3012 3014 3012 3013 3016 3020
3064 3065 3065 3064 3063 3062 3061 3061 3060 3059 3057 3058 3059 3059 3057 3057 3053 3051 3047 3043 3039 3035 3033 3030 3027 3024 3022 3018 3016 3015 3014 3013 3013 3012 3010 3009 3008 3007 3007 3007 3007 3007 3007 3006 3005 3004 3005 3006 3008 3008 3008 3008 3005 3012
3058 3060 3060 3060 3059 3059 3058 3057 3057 3055 3055 3058 3055 3055 3055 3052 3046 3047 3043 3039 3035 3031 3029 3025 3023 3019 3017 3013 3011 3010 3009 3008 3006 3005 3004 3004 3002 3001 3001 3001 3001 3001 3001 3001 3001 3000 3001 3001 3002 3003 3004 2992 3000 3010
3054 3055 3055 3055 3055 3055 3055 3055 3053 3052 3052 3054 3054 3054 3051 3049 3046 3045 3040 3037 3034 3030 3026 3023 3020 3015 3010 3006 3004 3003 3002 3002 3001 2999 2998 2998 2997 2996 2996 2995 2995 2995 2996 2996 2996 2996 2996 2996 2997 2998 3001 2997 2996 3009
3051 3051 3051 3051 3051 3051 3052 3052 3051 3050 3050 3051 3051 3050 3048 3046 3046 3043 3037 3037 3034 3029 3024 3020 3015 3009 3004 3000 2996 2995 2995 2996 2995 2994 2992 2991 2991 2990 2990 2989 2989 2989 2989 2990 2990 2992 2993 2993 2995 2996 3000 2995 2993 3004
3047 3047 3048 3047 3047 3047 3046 3046 3048 3048 3046 3048 3048 3046 3044 3044 3043 3040 3038 3037 3034 3029 3024 3020 3016 3009 3003 3001 2997 2994 2992 2992 2990 2990 2988 2986 2985 2985 2986 2985 2984 2983 2984 2985 2986 2988 2990 2991 2991 2993 2994 2992 2997 3003
3043 3044 3044 3044 3044 3043 3043 3041 3044 3045 3045 3044 3043 3042 3042 3040 3039 3039 3038 3035 3033 3030 3027 3023 3019 3013 3008 3005 3001 2997 2994 2993 2989 2988 2988 2986 2984 2984 2983 2981 2979 2977 2978 2979 2981 2984 2986 2989 2991 2993 2996 2998 3001 3008
3040 3041 3041 3041 3039 3039 3039 3040 3042 3043 3042 3041 3041 3039 3039 3036 3036 3033 3033 3033 3032 3030 3029 3025 3021 3019 3015 3011 3007 3003 2999 2998 2996 2994 2990 2988 2987 2985 2983 2980 2977 2975 2972 2973 2977 2981 2982 2985 2988 2991 2995 2998 3001 3012
3038 3039 3038 3036 3036 3036 3037 3038 3039 3039 3039 3039 3039 3037 3034 3034 3033 3031 3028 3030 3031 3030 3029 3028 3025 3024 3022 3020 3017 3012 3010 3007 3004 3002 2999 2998 2994 2991 2990 2987 2983 2980 2976 2975 2979 2983 2982 2989 2989 2994 3001 3004 3006 3012
3033 3033 3033 3032 3033 3035 3037 3036 3036 3036 3037 3037 3036 3035 3034 3031 3030 3028 3027 3031 3031 3032 3029 3029 3027 3024 3026 3024 3021 3018 3018 3016 3014 3012 3009 3008 3008 3005 3001 2998 2996 2995 2991 2989 2993 2997 2999 2999 3001 3005 3006 3009 3014 3016
3028 3028 3028 3030 3030 3033 3034 3033 3034 3035 3034 3034 3033 3032 3031 3029 3027 3027 3027 3028 3032 3032 3031 3028 3030 3026 3030 3027 3025 3026 3024 3022 3021 3018 3015 3016 3015 3012 3011 3009 3006 3006 3005 3006 3007 3009 3010 3011 3012 3014 3016 3018 3019 3021
3023 3024 3027 3029 3029 3031 3031 3030 3031 3031 3031 3031 3032 3030 3029 3028 3028 3027 3026 3028 3030 3032 3033 3034 3034 3033 3032 3025 3022 3021 3025 3022 3024 3025 3025 3023 3020 3018 3016 3014 3013 3012 3010 3009 3010 3010 3012 3014 3017 3018 3018 3019 3021 3022
3016 3019 3022 3023 3026 3026 3027 3028 3027 3029 3029 3028 3029 3028 3029 3027 3027 3027 3028 3029 3031 3033 3031 3034 3034 3034 3031 3031 3028 3026 3026 3026 3026 3029 3030 3030 3029 3027 3025 3023 3022 3018 3015 3014 3013 3014 3015 3015 3015 3016 3017 3017 3016 3018
3012 3017 3019 3020 3022 3021 3023 3025 3026 3025 3023 3026 3027 3026 3025 3024 3023 3022 3024 3027 3030 3030 3030 3033 3029 3032 3031 3030 3032 3030 3030 3031 3030 3032 3034 3033 3032 3031 3029 3027 3024 3022 3022 3020 3018 3017 3017 3017 3017 3017 3017 3018 3017 3016
3013 3015 3017 3018 3019 3021 3021 3022 3021 3023 3023 3024 3023 3022 3021 3020 3020 3022 3022 3026 3029 3029 3031 3033 3033 3033 3035 3034 3033 3034 3036 3036 3036 3036 3037 3036 3034 3033 3033 3030 3028 3026 3025 3024 3023 3021 3019 3018 3017 3017 3016 3016 3015 3014
3013 3014 3015 3016 3017 3015 3018 3017 3016 3020 3021 3021 3020 3020 3018 3019 3020 3020 3022 3022 3025 3028 3029 3031 3034 3034 3035 3036 3035 3035 3036 3036 3036 3036 3037 3036 3036 3036 3036 3034 3032 3030 3027 3026 3025 3023 3021 3019 3018 3016 3015 3014 3012 3011
3010 3011 3012 3014 3013 3013 3014 3017 3016 3014 3017 3016 3013 3017 3019 3020 3019 3019 3020 3022 3024 3026 3028 3029 3032 3032 3034 3035 3034 3034 3033 3034 3035 3035 3035 3035 3035 3035 3034 3035 3034 3033 3032 3030 3027 3025 3023 3021 3019 3018 3016 3014 3014 3012